SCP
4 4 3 2 2 2 1 1 1 2 2 2 2 1 1 0 0 0 0 0 0 0 0 0 0 0 0 0 0 0 0 0 0 0 0 0 0 0 0 0 0 0 0
4 4 3 3 2 2 1 1 1 1 2 2 2 1 1 0 0 0 0 0 0 0 0 0 0 0 0 0 0 0 0 0 0 0 0 0 0 0 0 0 0 0 0
4 4 4 3 2 2 1 1 1 1 1 1 1 1 1 1 0 0 0 0 0 0 0 0 0 0 0 0 0 0 0 0 0 0 0 0 0 0 0 0 0 0 0
3 4 3 3 2 2 2 1 1 1 0 0 1 1 1 1 1 0 0 0 0 0 0 0 0 0 0 0 0 0 0 0 0 0 0 0 0 0 0 0 0 0 0
3 3 3 2 2 2 2 2 1 1 1 0 0 0 1 1 1 1 0 0 0 0 0 0 0 0 0 0 0 0 0 0 0 0 0 0 0 0 0 0 0 0 0
3 3 2 2 2 2 2 2 2 1 1 0 0 0 0 1 1 0 0 0 0 0 0 0 0 0 0 0 0 0 0 0 0 0 0 0 0 0 0 0 0 0 0
3 3 2 2 2 2 2 2 2 1 1 1 0 0 0 0 0 0 0 0 0 0 0 0 0 0 0 0 0 0 0 0 0 0 0 0 0 0 0 0 0 0 0
3 3 3 2 2 2 2 2 2 2 1 1 0 0 0 0 0 0 0 0 0 0 0 0 0 0 0 0 0 0 0 0 0 0 0 0 0 0 0 0 0 0 0
3 3 3 3 2 2 2 2 2 2 1 1 0 0 0 0 0 0 0 0 0 0 0 0 0 0 0 0 0 0 0 0 0 0 0 0 0 0 0 0 0 0 0
3 3 3 3 2 2 2 2 2 1 1 1 0 0 0 0 0 0 0 0 0 0 0 0 0 0 0 0 0 0 0 0 0 0 0 0 0 0 0 0 0 0 0
2 3 3 3 2 1 1 1 1 1 1 1 0 0 0 0 0 0 0 0 0 0 0 0 0 0 0 0 0 0 0 0 0 0 0 0 0 0 0 0 0 0 0
2 2 2 2 1 1 1 1 1 1 1 1 0 0 0 0 0 0 0 0 0 0 0 1 0 0 0 0 0 0 0 0 0 0 0 0 0 0 0 0 0 0 0
1 1 1 1 1 1 0 0 0 1 1 0 0 0 0 0 0 0 0 0 0 0 0 0 0 0 0 0 0 0 0 0 0 0 0 0 0 0 0 0 0 0 0
1 1 1 1 0 0 0 0 0 0 0 0 0 0 0 0 0 0 0 0 0 0 0 0 0 0 0 0 0 0 0 0 0 0 0 0 0 0 0 0 0 0 0
1 1 1 1 0 0 0 0 0 0 0 0 0 0 0 0 0 0 0 0 0 0 0 0 0 0 0 0 0 0 0 0 0 0 0 0 0 0 0 0 0 0 0
1 1 1 0 0 0 0 0 0 0 0 0 0 0 0 0 0 0 0 0 0 0 0 0 0 0 0 0 0 0 0 0 0 0 0 0 0 0 0 0 0 0 0
0 0 0 0 0 0 0 0 0 0 0 0 0 0 0 0 0 0 0 0 0 0 0 0 0 0 0 0 0 0 0 0 0 0 0 0 0 0 0 0 0 0 0
0 0 0 0 0 0 0 0 0 0 0 0 0 0 0 0 0 0 0 0 0 0 0 0 0 0 0 0 0 0 0 0 0 0 0 0 0 0 0 0 0 0 0
0 0 0 0 0 0 0 1 0 0 0 0 0 0 0 0 0 0 0 0 0 0 0 0 0 0 0 0 0 0 0 0 0 0 0 0 0 0 0 0 0 0 0
0 0 0 0 0 0 0 0 0 0 0 0 0 0 0 0 0 0 0 0 0 0 0 0 0 0 0 0 0 0 0 0 0 0 0 0 0 0 0 0 0 0 0
0 0 0 0 0 0 0 0 0 0 0 0 0 0 0 0 0 0 0 0 0 0 0 0 0 0 0 0 0 0 0 0 0 0 0 0 0 0 0 0 0 0 0
0 0 0 0 0 0 0 0 0 0 0 0 0 0 0 0 0 0 0 0 0 0 0 0 0 0 0 0 0 0 0 0 0 0 0 0 0 0 0 0 0 0 0
0 0 0 0 0 0 0 0 0 0 0 0 0 0 0 0 0 0 0 0 0 0 0 0 0 0 0 0 0 0 0 0 0 0 0 0 0 0 0 0 0 0 0
0 0 0 0 0 0 0 0 0 0 0 0 0 0 0 0 0 0 0 0 0 0 0 0 0 0 0 0 0 0 0 0 0 0 0 0 0 0 0 0 0 0 0
0 0 0 0 0 0 0 0 0 0 0 0 0 0 0 0 0 0 0 0 0 0 0 0 0 0 0 0 0 0 0 0 0 0 0 0 0 0 0 0 0 0 0
0 0 0 0 0 0 0 0 0 0 0 0 0 0 0 0 0 0 0 0 0 0 0 0 0 0 0 0 0 0 0 0 0 0 0 0 0 0 0 0 0 0 0
Wind_Speed
16 15 14 14 15 14 13 14 14 13 13 15 15 14 14 13 13 12 11 11 11 9 8 9 8 6 5 4 4 3 3 3 4 3 1 0 0 1 2 2 2 2 4
15 14 15 14 13 14 14 14 13 13 14 14 14 14 14 13 13 13 12 12 12 11 10 9 9 6 6 5 4 4 4 4 4 4 2 1 1 1 1 2 2 2 3
13 13 13 14 14 15 15 14 13 13 13 13 14 15 14 14 13 13 12 12 11 11 11 10 9 8 7 5 5 5 4 3 3 3 2 1 0 0 1 2 2 2 3
12 13 14 15 15 14 13 13 14 13 13 14 14 14 13 13 13 12 12 11 10 9 9 9 9 9 9 8 6 5 4 3 2 2 2 1 0 0 0 2 3 2 3
11 13 14 14 12 11 11 12 12 13 13 13 12 12 12 11 11 12 11 11 10 9 8 7 7 8 9 8 6 5 5 4 3 2 1 1 1 0 1 1 2 3 3
11 12 12 11 12 12 12 12 12 12 12 12 13 12 12 10 14 17 13 10 10 9 8 7 6 7 8 9 9 9 8 5 4 3 2 2 2 1 1 1 1 2 3
9 11 11 12 13 12 12 12 12 12 11 12 12 12 11 12 17 18 16 10 9 9 9 8 6 6 7 6 7 8 6 6 6 5 3 3 2 2 1 1 1 1 2
8 9 11 12 12 12 12 12 12 10 11 10 11 11 10 11 17 18 16 10 8 8 8 8 8 7 7 9 7 6 4 3 3 3 3 2 1 1 1 1 1 1 1
8 9 10 11 12 13 13 12 10 10 10 9 10 11 11 11 16 18 16 9 7 7 6 7 8 8 12 14 9 8 6 4 6 8 7 6 6 5 4 2 2 2 2
8 8 9 11 12 13 13 11 9 9 10 9 9 9 10 11 16 18 17 9 9 7 6 7 10 11 14 14 9 8 7 4 5 5 6 7 5 5 6 3 1 1 1
5 7 8 10 11 11 11 10 10 10 10 9 9 8 8 10 15 18 17 9 9 9 7 6 6 14 14 13 10 7 8 8 5 5 4 4 3 3 3 3 2 1 1
6 7 8 9 9 9 11 10 10 12 12 10 10 8 6 7 11 14 17 14 13 10 8 6 8 15 14 13 9 10 13 10 5 4 4 3 2 2 2 2 2 1 0
6 7 8 9 9 10 11 12 10 10 10 9 9 9 7 6 9 15 17 18 16 9 8 13 15 16 14 10 12 13 10 6 5 4 3 2 1 1 1 2 2 3 2
7 7 8 10 10 9 8 9 9 10 10 10 10 9 8 7 7 9 9 11 15 12 10 14 17 16 11 11 10 7 5 4 4 4 3 2 1 1 2 1 2 2 3
7 7 8 8 10 9 7 6 7 7 10 12 11 11 12 10 10 15 13 10 10 11 12 8 7 7 6 5 5 5 4 4 4 3 3 2 2 2 2 2 1 2 2
7 7 7 7 8 8 9 7 8 8 11 12 13 13 9 13 19 19 19 20 21 22 13 9 7 7 6 6 6 4 4 4 3 3 3 2 2 1 1 2 2 2 2
7 7 6 7 8 9 9 10 9 9 12 12 15 16 17 21 22 21 22 22 21 19 9 8 7 7 6 6 5 4 3 3 3 3 3 2 2 1 1 1 2 2 2
6 7 7 7 8 8 9 9 9 10 9 7 10 16 20 22 22 22 24 19 12 8 7 8 7 7 6 6 5 4 4 4 3 3 3 2 2 1 1 1 1 2 2
6 6 7 7 7 8 8 9 9 10 10 10 9 11 17 20 21 20 18 9 10 8 7 7 7 7 6 6 5 5 5 4 4 3 2 2 2 1 1 1 1 3 3
5 8 9 8 8 8 9 9 9 10 10 10 10 10 11 11 10 10 7 7 8 8 7 7 6 6 6 6 6 5 5 4 4 3 2 2 1 1 1 0 1 2 2
6 8 11 9 8 8 9 9 10 10 10 9 9 10 15 10 10 10 8 7 7 8 8 7 7 7 6 6 5 5 5 4 3 3 3 2 1 1 0 0 1 1 2
6 6 7 8 8 8 9 9 10 10 11 12 10 11 16 9 8 8 8 7 6 6 7 7 7 6 6 6 6 6 5 4 4 3 3 2 1 1 1 0 1 1 2
6 7 7 8 8 11 10 9 9 10 11 11 11 10 9 8 8 8 8 8 7 7 6 6 7 6 5 4 4 5 5 5 4 4 4 3 2 1 1 0 1 2 2
7 8 9 9 8 9 9 10 10 10 10 10 10 10 9 9 9 9 9 8 7 7 6 6 6 8 8 6 4 3 3 4 4 4 5 4 2 1 1 0 1 2 2
7 8 8 9 9 9 10 10 10 10 10 10 10 10 10 10 10 9 8 8 8 8 8 7 6 7 8 8 6 4 6 7 6 4 4 3 3 2 1 1 1 2 2
7 8 8 8 8 9 10 10 11 11 10 10 10 10 10 10 10 9 9 8 8 7 7 6 7 8 8 6 7 8 8 7 7 6 4 3 3 2 1 1 1 2 2
Wind_Direction
196 197 197 195 194 189 189 191 189 182 180 182 183 184 184 185 185 187 188 184 191 193 190 193 201 193 188 189 181 179 188 183 226 254 214 211 121 332 335 324 302 300 306
196 195 197 194 190 191 192 190 186 183 183 183 181 183 185 186 186 188 189 188 191 193 192 191 198 190 191 187 184 191 195 193 204 239 247 235 241 299 318 320 324 328 305
192 192 194 192 190 193 192 187 184 184 182 180 181 185 186 186 187 189 189 190 192 193 190 192 194 186 194 189 186 192 193 188 193 210 240 218 226 342 331 318 323 317 318
190 190 193 193 193 192 188 185 184 183 182 182 184 186 185 184 185 186 186 186 187 188 187 189 190 190 193 188 188 189 178 173 176 191 221 222 233 335 342 310 318 324 319
191 191 194 194 189 182 180 182 182 182 183 181 179 180 181 181 184 182 182 181 180 178 180 184 185 184 184 180 176 174 167 169 168 179 199 201 232 301 291 289 297 317 307
194 193 190 185 180 178 178 176 177 179 178 177 179 178 180 184 178 176 175 177 175 174 174 172 167 169 166 161 158 157 159 165 175 172 182 200 235 238 245 277 292 335 308
194 188 183 179 178 177 173 172 176 176 173 176 177 176 179 178 171 171 170 169 169 170 168 164 156 156 151 144 138 131 131 134 148 160 167 195 205 208 188 237 259 264 269
190 184 180 176 175 171 171 174 175 171 170 170 171 172 171 171 166 163 158 157 155 159 162 161 156 152 148 138 129 118 105 98 117 123 141 147 136 133 138 157 240 291 296
186 182 177 173 171 168 171 172 167 165 165 163 162 164 165 162 160 156 151 152 146 147 146 148 149 146 144 137 132 126 113 94 87 97 96 90 84 80 88 80 48 25 331
187 180 173 169 169 169 169 165 158 158 158 154 152 156 159 160 158 154 151 151 147 143 137 140 143 144 146 142 141 140 137 133 114 95 80 67 60 59 63 71 96 66 345
175 165 164 164 165 163 156 153 151 150 147 146 144 143 151 157 156 156 155 154 152 146 142 141 141 142 142 141 136 138 141 132 118 108 94 77 61 53 45 43 56 111 145
155 154 157 157 154 151 146 146 149 148 145 145 141 136 134 146 152 156 154 150 146 142 142 140 136 137 134 132 127 126 124 118 110 106 100 87 70 48 31 29 35 41 180
149 151 151 149 148 149 149 149 149 151 149 150 147 143 140 137 141 144 145 141 136 131 133 135 132 130 125 121 121 122 119 113 115 112 110 101 87 76 50 29 21 17 359
151 149 147 146 144 146 147 152 154 156 153 151 150 147 143 140 140 141 139 134 128 123 122 123 120 117 109 110 111 106 100 114 118 119 117 103 81 64 47 28 12 359 1
148 145 143 144 144 142 140 144 152 161 163 158 158 154 154 155 158 149 144 141 141 135 126 114 112 117 114 108 100 95 95 99 96 100 108 105 88 62 36 21 29 18 9
146 146 145 142 140 138 130 109 90 121 132 140 147 147 144 143 144 144 141 140 138 137 127 130 131 133 133 131 127 116 103 105 105 109 109 106 102 86 51 20 24 24 351
152 150 144 143 143 142 139 135 124 99 101 118 134 138 140 142 142 141 139 138 138 134 124 133 137 139 136 134 134 129 125 120 115 114 113 111 105 92 65 30 13 2 344
144 146 147 145 144 142 140 139 138 137 130 116 121 132 137 140 141 140 138 131 131 125 129 138 140 140 139 137 135 128 124 122 117 117 114 111 107 101 75 32 7 346 332
147 146 141 137 135 134 134 132 132 131 131 130 125 127 133 135 135 138 137 134 140 140 134 133 136 138 137 135 132 130 132 133 129 125 122 119 116 107 86 21 353 347 353
141 141 139 137 135 136 137 136 136 136 135 136 138 138 138 135 135 137 131 129 132 134 134 133 133 134 133 132 131 132 130 128 128 125 127 124 121 122 126 25 352 339 326
140 138 137 136 138 141 142 141 140 137 136 135 135 143 145 140 138 137 135 132 134 136 136 134 134 133 131 131 132 133 134 135 138 137 134 133 132 123 109 75 329 320 319
141 141 141 140 138 138 138 136 135 136 136 134 133 136 137 128 130 132 129 126 122 124 130 132 131 133 138 142 142 141 141 143 146 142 139 140 140 133 116 57 349 332 329
137 137 134 133 132 135 133 133 134 136 137 138 139 137 136 131 130 128 126 125 123 122 122 124 125 124 124 128 136 144 150 158 159 154 148 146 143 140 132 108 321 326 323
138 139 137 135 134 137 136 135 135 136 137 138 138 136 134 131 128 125 124 123 122 120 120 122 125 132 132 128 124 126 135 143 143 148 150 149 149 149 147 173 299 303 305
135 137 139 140 141 140 137 137 137 137 137 136 135 132 129 127 127 126 125 124 123 123 122 121 124 129 132 131 131 135 144 143 141 138 138 139 144 154 162 207 281 302 307
136 137 138 140 142 142 141 140 139 138 137 136 134 133 132 132 132 132 131 129 127 126 124 122 126 128 130 129 136 142 143 142 141 140 134 136 143 159 173 208 271 293 304